sat.trackr.live / text

‹ back to catalog

STARLINK-36348

NORAD 67851 · 2026-034B

PAYLOAD ACTIVE UNKNOWN

§ Identity

Operator
Country
US
Launch date
2026-02-20
Launch site
AFETR
Launch vehicle
Mass (kg)
RCS (m²)

Purposes: comms

External: N2YO · Heavens-Above · Gunter

§ Orbital elements

Epoch: 2026-05-25T04:25:17.245632Z

Period
94.10 min
Inclination
53.1578°
Eccentricity
0.0001141
Mean motion
15.30209775 rev/d
Perigee alt
474.4 km
Apogee alt
476.0 km
Semi-major
6,853.3 km
B*
6.7897e-4
RAAN
209.2224°
Arg perigee
81.7756°
Mean anomaly
278.3375°
Rev number
1,574

§ Raw data

STARLINK-363481 67851U 26034B   26145.18422738  .00019810  00000+0  67897-3 0  99932 67851  53.1578 209.2224 0001141  81.7756 278.3375 15.30209775 15741

JSON: /api/v1/satellites/67851 · /tle

For live sub-satellite position, see the globe view (requires WebGL).

§ Visibility from observer

Set your observer location to see the next 7 days of passes ≥ 10°. The values pass through the URL so the page stays shareable.

No JS? Fill the form by hand. The geolocation button needs JavaScript.